Regional Weather Roundup
Issued by NWS

Home | Current Version | Previous Version | Graphics & Text | Print | Product List | Glossary On
Versions: 1 2 3 4 5 6 7 8 9 10 11 12 13 14 15 16 17 18 19 20 21 22 23 24 25 26 27 28 29 30 31 32 33 34 35 36 37 38 39 40 41 42 43 44 45 46 47 48 49 50
000
ASUS43 KFSD 281302
RWRSD

WEATHER ROUNDUP FOR SOUTH DAKOTA
NATIONAL WEATHER SERVICE SIOUX FALLS SD
800 AM CDT WED JUN 28 2017

NOTE: "FAIR" INDICATES FEW OR NO CLOUDS BELOW 12,000 FEET WITH NO
SIGNIFICANT WEATHER AND/OR OBSTRUCTIONS TO VISIBILITY.


SDZ001>005-009-010-012>017-281400-
NORTHWEST AND NORTH CENTRAL SOUTH DAKOTA

CITY           SKY/WX    TMP DP  RH WIND       PRES   REMARKS
BUFFALO          N/A     61  54  77 NW13      29.72F
FAITH            N/A     65  57  75 NW16      29.72R
MOBRIDGE       CLOUDY    68  56  65 NW13      29.60R
$$

SDZ012>016-024>037-041>051-057-063-072>074-281400-
SOUTHWEST AND SOUTH CENTRAL SOUTH DAKOTA

CITY           SKY/WX    TMP DP  RH WIND       PRES   REMARKS
RAPID CTY ARPT SUNNY     65  51  60 NW16      29.79S
PIERRE         CLOUDY    65  60  84 W9        29.64S
CUSTER         SUNNY     58  44  60 N6        29.90R
PHILIP         SUNNY     66  58  75 NW16G22   29.71F
PINE RIDGE     SUNNY     61  55  81 NW5       29.83R
SPEARFISH      PTSUNNY   61  52  72 W8        29.86R
WINNER         FAIR      69  57  65 NW10      29.69R
$$

SDZ004>011-016>023-039-040-281400-
NORTHEAST SOUTH DAKOTA

CITY           SKY/WX    TMP DP  RH WIND       PRES   REMARKS
ABERDEEN       CLOUDY    67  60  78 W15G23    29.53R
WATERTOWN      CLOUDY    64  60  87 SW9       29.53R
BROOKINGS      LGT RAIN  65  62  90 S6        29.58R
SISSETON         N/A     67  65  93 SE9       29.46F
$$

SDZ017-020-022-023-036>040-048>070-281400-
SOUTHEAST SOUTH DAKOTA

CITY           SKY/WX    TMP DP  RH WIND       PRES   REMARKS
SIOUX FALLS    CLOUDY    68  64  87 S15G22    29.61R
HURON          RAIN      66  62  87 NW23      29.55R
CHAMBERLAIN    CLOUDY    70  60  69 W13       29.64S
MITCHELL       CLOUDY    71  57  61 W14       29.59R
YANKTON        SUNNY     69  62  78 S9        29.64R
$$

ABBREVIATIONS USED IN REMARKS
   TC - TEMPERATURE IN CELSIUS
  WCI - WIND CHILL INDEX
   HX - HEAT INDEX
  VSB - VISIBILITY





USA.gov is the U.S. government's official web portal to all federal, state and local government web resources and services.